| time (UTC) | temp C | wind direction | speed KPH | gust KPH | rain 1hr cm | rain 24hr cm | rain mn cm | humidity % | barometer mb |
| 20260508144220 | 10 | 0.0 | 0.0 | 0.00 | 0.00 | 0.00 | 12.2 | ||
| 20260508143713 | 11 | 0.0 | 0.0 | 0.00 | 0.00 | 0.00 | 12.1 | ||
| 20260508133321 | 12 | 0.0 | 0.0 | 0.00 | 0.00 | 0.00 | 12.7 | ||
| 20260508132814 | 12 | 0.0 | 0.0 | 0.00 | 0.00 | 0.00 | 12.7 | ||
| 20260508122426 | 13 | 0.0 | 0.0 | 0.00 | 0.00 | 0.00 | 13.6 | ||
| 20260508121918 | 14 | 0.0 | 0.0 | 0.00 | 0.00 | 0.00 | 13.7 | ||
| 20260508111423 | 14 | 0.0 | 0.0 | 0.00 | 0.00 | 0.00 | 14.3 | ||
| 20260508110916 | 14 | 0.0 | 0.0 | 0.00 | 0.00 | 0.00 | 14.1 | ||
| 20260508100524 | 16 | 0.0 | 0.0 | 0.00 | 0.00 | 0.00 | 15.4 | ||
| 20260508100016 | 16 | 0.0 | 0.0 | 0.00 | 0.00 | 0.00 | 15.6 | ||
| 20260508085532 | 17 | 0.0 | 0.0 | 0.00 | 0.00 | 0.00 | 16.1 | ||
| 20260508085023 | 17 | 0.0 | 0.0 | 0.00 | 0.00 | 0.00 | 16.1 | ||
| 20260508074523 | 20 | 0.0 | 0.0 | 0.00 | 0.00 | 0.00 | 15.9 | ||
| 20260508074022 | 19 | 0.0 | 0.0 | 0.00 | 0.00 | 0.00 | 16.2 | ||
| 20260508063529 | 20 | 0.0 | 0.0 | 0.00 | 0.00 | 0.00 | 15.7 | ||
| 20260508063018 | 20 | 0.0 | 0.0 | 0.00 | 0.00 | 0.00 | 15.8 | ||
| 20260508052532 | 20 | 0.0 | 0.0 | 0.00 | 0.00 | 0.00 | 15.7 | ||
| 20260508052024 | 20 | 0.0 | 0.0 | 0.00 | 0.00 | 0.00 | 15.3 | ||
| 20260508041519 | 17 | 0.0 | 0.0 | 0.00 | 0.00 | 0.00 | 15.3 | ||
| 20260508041015 | 17 | 0.0 | 0.0 | 0.00 | 0.00 | 0.00 | 15.5 | ||
| 20260508030516 | 15 | 0.0 | 0.0 | 0.00 | 0.00 | 0.00 | 14.8 | ||
| 20260508030010 | 13 | 0.0 | 0.0 | 0.00 | 0.00 | 0.00 | 14.7 | ||
| 20260508025503 | 13 | 0.0 | 0.0 | 0.00 | 0.00 | 0.00 | 14.7 | ||
| 20260508015113 | 12 | 0.0 | 0.0 | 0.00 | 0.00 | 0.00 | 14.1 | ||
| 20260508014606 | 12 | 0.0 | 0.0 | 0.00 | 0.00 | 0.00 | 14.2 | ||
| 20260508004212 | 13 | 0.0 | 0.0 | 0.00 | 0.00 | 0.00 | 14.1 | ||
| 20260508003703 | 14 | 0.0 | 0.0 | 0.00 | 0.00 | 0.00 | 14.0 | ||
| 20260507233319 | 14 | 0.0 | 0.0 | 0.00 | 0.00 | 0.00 | 10.2 | ||
| 20260507232812 | 14 | 0.0 | 0.0 | 0.00 | 0.00 | 0.00 | 9.9 | ||
| 20260507222311 | 11 | 0.0 | 0.0 | 0.00 | 0.00 | 0.00 | 9.5 | ||
| 20260507221806 | 11 | 0.0 | 0.0 | 0.00 | 0.00 | 0.00 | 9.3 | ||
| 20260507211409 | 12 | 0.0 | 0.0 | 0.00 | 0.00 | 0.00 | 9.5 | ||
| 20260507210903 | 12 | 0.0 | 0.0 | 0.00 | 0.00 | 0.00 | 9.5 | ||
| 20260507200836 | 14 | 0.0 | 0.0 | 0.00 | 0.00 | 0.00 | 10.9 | ||
| 20260507200327 | 14 | 0.0 | 0.0 | 0.00 | 0.00 | 0.00 | 11.4 | ||
| 20260507195815 | 14 | 0.0 | 0.0 | 0.00 | 0.00 | 0.00 | 11.2 | ||
| 20260507185313 | 16 | 0.0 | 0.0 | 0.00 | 0.00 | 0.00 | 11.9 | ||
| 20260507184812 | 16 | 0.0 | 0.0 | 0.00 | 0.00 | 0.00 | 12.9 | ||
| 20260507174313 | 18 | 0.0 | 0.0 | 0.00 | 0.00 | 0.00 | 13.8 | ||
| 20260507173806 | 18 | 0.0 | 0.0 | 0.00 | 0.00 | 0.00 | 12.0 | ||
| 20260507163424 | 22 | 0.0 | 0.0 | 0.00 | 0.00 | 0.00 | 10.4 | ||
| 20260507162916 | 22 | 0.0 | 0.0 | 0.00 | 0.00 | 0.00 | 10.4 | ||
| 20260507152404 | 25 | 0.0 | 0.0 | 0.00 | 0.00 | 0.00 | 9.3 | ||
| 20260507151904 | 25 | 0.0 | 0.0 | 0.00 | 0.00 | 0.00 | 8.7 |